TimeCST,TemperatureF,Dew PointF,Humidity,Sea Level PressureIn,VisibilityMPH,Wind Direction,Wind SpeedMPH,Gust SpeedMPH,PrecipitationIn,Events,Conditions,WindDirDegrees,DateUTC
12:15 AM,10.4,5.0,79,30.23,-9999.0,North,-9999.0,-,N/A,Snow,Heavy Snow,0,2014-02-08 06:15:00
12:35 AM,10.4,5.0,79,30.23,-9999.0,North,-9999.0,-,N/A,,Overcast,0,2014-02-08 06:35:00
12:55 AM,10.4,5.0,79,30.22,-9999.0,North,-9999.0,-,N/A,Snow,Heavy Snow,0,2014-02-08 06:55:00
1:15 AM,10.4,5.0,79,30.22,-9999.0,North,-9999.0,-,N/A,Snow,Heavy Snow,0,2014-02-08 07:15:00
1:35 AM,10.4,5.0,79,30.22,-9999.0,North,-9999.0,-,N/A,Snow,Heavy Snow,0,2014-02-08 07:35:00
1:55 AM,10.4,5.0,79,30.22,-9999.0,North,-9999.0,-,N/A,Snow,Heavy Snow,0,2014-02-08 07:55:00
2:15 AM,10.4,6.8,85,30.21,-9999.0,North,-9999.0,-,N/A,Snow,Heavy Snow,0,2014-02-08 08:15:00
2:35 AM,10.4,6.8,85,30.20,-9999.0,North,-9999.0,-,N/A,Snow,Heavy Snow,0,2014-02-08 08:35:00
2:50 AM,10.4,6.8,85,30.20,-9999.0,North,-9999.0,-,N/A,Snow,Heavy Snow,0,2014-02-08 08:50:00
3:15 AM,10.4,6.8,85,30.19,-9999.0,North,-9999.0,-,N/A,,Overcast,0,2014-02-08 09:15:00
3:35 AM,10.4,8.6,92,30.18,-9999.0,North,-9999.0,-,N/A,,Unknown,0,2014-02-08 09:35:00
3:55 AM,10.4,8.6,92,30.18,-9999.0,North,-9999.0,-,N/A,,Unknown,0,2014-02-08 09:55:00
4:15 AM,10.4,10.4,100,30.17,-9999.0,North,-9999.0,-,N/A,,Unknown,0,2014-02-08 10:15:00
4:35 AM,10.4,10.4,100,30.17,-9999.0,North,-9999.0,-,N/A,Snow,Heavy Snow,0,2014-02-08 10:35:00
4:55 AM,10.4,10.4,100,30.17,-9999.0,North,-9999.0,-,N/A,,Overcast,0,2014-02-08 10:55:00
5:15 AM,10.4,10.4,100,30.16,-9999.0,North,-9999.0,-,N/A,Snow,Heavy Snow,0,2014-02-08 11:15:00
5:35 AM,12.2,10.4,92,30.15,-9999.0,North,-9999.0,-,N/A,,Overcast,0,2014-02-08 11:35:00
5:55 AM,12.2,10.4,92,30.15,-9999.0,North,-9999.0,-,N/A,,Overcast,0,2014-02-08 11:55:00
6:15 AM,12.2,10.4,92,30.16,-9999.0,North,-9999.0,-,N/A,,Unknown,0,2014-02-08 12:15:00
6:35 AM,12.2,10.4,92,30.15,-9999.0,North,-9999.0,-,N/A,,Overcast,0,2014-02-08 12:35:00
6:55 AM,12.2,10.4,92,30.16,-9999.0,North,-9999.0,-,N/A,,Overcast,0,2014-02-08 12:55:00
7:15 AM,12.2,10.4,92,30.16,-9999.0,North,-9999.0,-,N/A,Snow,Heavy Snow,0,2014-02-08 13:15:00
7:35 AM,12.2,10.4,92,30.15,-9999.0,North,-9999.0,-,N/A,,Overcast,0,2014-02-08 13:35:00
7:55 AM,12.2,10.4,92,30.13,-9999.0,North,-9999.0,-,N/A,Snow,Heavy Snow,0,2014-02-08 13:55:00
8:15 AM,14.0,10.4,86,30.13,-9999.0,North,-9999.0,-,N/A,,Overcast,0,2014-02-08 14:15:00
8:35 AM,14.0,10.4,86,30.12,-9999.0,North,-9999.0,-,N/A,Snow,Heavy Snow,0,2014-02-08 14:35:00
8:55 AM,14.0,10.4,86,30.14,-9999.0,North,-9999.0,-,N/A,,Overcast,0,2014-02-08 14:55:00
9:15 AM,14.0,12.2,93,30.14,-9999.0,North,-9999.0,-,N/A,,Overcast,0,2014-02-08 15:15:00
9:35 AM,14.0,12.2,93,30.13,-9999.0,North,-9999.0,-,N/A,,Overcast,0,2014-02-08 15:35:00
9:55 AM,15.8,12.2,86,30.14,-9999.0,North,-9999.0,-,N/A,,Unknown,0,2014-02-08 15:55:00
10:15 AM,15.8,12.2,86,30.14,-9999.0,North,-9999.0,-,N/A,Snow,Heavy Snow,0,2014-02-08 16:15:00
10:35 AM,15.8,14.0,93,30.14,-9999.0,North,-9999.0,-,N/A,Snow,Heavy Snow,0,2014-02-08 16:35:00
10:55 AM,17.6,14.0,86,30.13,-9999.0,North,-9999.0,-,N/A,Snow,Heavy Snow,0,2014-02-08 16:55:00
11:15 AM,17.6,14.0,86,30.13,-9999.0,North,-9999.0,-,N/A,,Mostly Cloudy,0,2014-02-08 17:15:00
11:35 AM,17.6,14.0,86,30.13,-9999.0,North,-9999.0,-,N/A,,Unknown,0,2014-02-08 17:35:00
11:55 AM,19.4,14.0,80,30.12,-9999.0,North,-9999.0,-,N/A,,Partly Cloudy,0,2014-02-08 17:55:00
12:15 PM,19.4,15.8,86,30.11,-9999.0,North,-9999.0,-,N/A,,Unknown,0,2014-02-08 18:15:00
12:35 PM,19.4,15.8,86,30.09,-9999.0,North,-9999.0,-,N/A,,Mostly Cloudy,0,2014-02-08 18:35:00
12:55 PM,21.2,15.8,80,30.08,-9999.0,North,-9999.0,-,N/A,,Mostly Cloudy,0,2014-02-08 18:55:00
1:15 PM,21.2,15.8,80,30.07,-9999.0,North,-9999.0,-,N/A,,Scattered Clouds,0,2014-02-08 19:15:00
1:35 PM,21.2,15.8,80,30.07,-9999.0,North,-9999.0,-,N/A,,Overcast,0,2014-02-08 19:35:00
1:55 PM,23.0,17.6,80,30.06,-9999.0,North,-9999.0,-,N/A,,Overcast,0,2014-02-08 19:55:00
2:15 PM,23.0,17.6,80,30.06,-9999.0,North,-9999.0,-,N/A,,Overcast,0,2014-02-08 20:15:00
2:35 PM,23.0,17.6,80,30.06,-9999.0,North,-9999.0,-,N/A,,Overcast,0,2014-02-08 20:35:00
2:55 PM,23.0,19.4,86,30.06,-9999.0,North,-9999.0,-,N/A,,Overcast,0,2014-02-08 20:55:00
3:15 PM,23.0,19.4,86,30.07,-9999.0,North,-9999.0,-,N/A,,Unknown,0,2014-02-08 21:15:00
3:35 PM,23.0,19.4,86,30.07,-9999.0,North,-9999.0,-,N/A,,Unknown,0,2014-02-08 21:35:00
3:55 PM,23.0,19.4,86,30.07,-9999.0,North,-9999.0,-,N/A,,Overcast,0,2014-02-08 21:55:00
4:15 PM,23.0,19.4,86,30.08,-9999.0,North,-9999.0,-,N/A,,Overcast,0,2014-02-08 22:15:00
4:35 PM,23.0,19.4,86,30.09,-9999.0,North,-9999.0,-,N/A,,Overcast,0,2014-02-08 22:35:00
4:55 PM,23.0,19.4,86,30.09,-9999.0,North,-9999.0,-,N/A,,Overcast,0,2014-02-08 22:55:00
5:15 PM,23.0,19.4,86,30.10,-9999.0,North,-9999.0,-,N/A,Snow,Heavy Snow,0,2014-02-08 23:15:00
5:35 PM,23.0,19.4,86,30.10,-9999.0,North,-9999.0,-,N/A,Snow,Heavy Snow,0,2014-02-08 23:35:00
5:55 PM,23.0,19.4,86,30.10,-9999.0,North,-9999.0,-,N/A,,Overcast,0,2014-02-08 23:55:00
6:15 PM,23.0,19.4,86,30.11,-9999.0,North,-9999.0,-,N/A,,Overcast,0,2014-02-09 00:15:00
6:35 PM,21.2,19.4,93,30.12,-9999.0,North,-9999.0,-,N/A,,Unknown,0,2014-02-09 00:35:00
6:55 PM,21.2,19.4,93,30.13,-9999.0,North,-9999.0,-,N/A,,Unknown,0,2014-02-09 00:55:00
7:15 PM,21.2,19.4,93,30.13,-9999.0,North,-9999.0,-,N/A,,Overcast,0,2014-02-09 01:15:00
7:35 PM,21.2,19.4,93,30.13,-9999.0,North,-9999.0,-,N/A,,Overcast,0,2014-02-09 01:35:00
7:55 PM,21.2,19.4,93,30.13,-9999.0,North,-9999.0,-,N/A,,Overcast,0,2014-02-09 01:55:00
8:15 PM,21.2,19.4,93,30.13,-9999.0,North,-9999.0,-,N/A,,Overcast,0,2014-02-09 02:15:00
8:35 PM,21.2,19.4,93,30.13,-9999.0,North,-9999.0,-,N/A,,Overcast,0,2014-02-09 02:35:00
8:55 PM,21.2,19.4,93,30.13,-9999.0,North,-9999.0,-,N/A,,Mostly Cloudy,0,2014-02-09 02:55:00
9:15 PM,21.2,17.6,86,30.13,-9999.0,North,-9999.0,-,N/A,,Mostly Cloudy,0,2014-02-09 03:15:00
9:35 PM,19.4,17.6,93,30.13,-9999.0,North,-9999.0,-,N/A,,Unknown,0,2014-02-09 03:35:00
9:55 PM,21.2,19.4,93,30.14,-9999.0,North,-9999.0,-,N/A,,Unknown,0,2014-02-09 03:55:00
10:15 PM,21.2,19.4,93,30.14,-9999.0,North,-9999.0,-,N/A,Snow,Heavy Snow,0,2014-02-09 04:15:00
10:35 PM,19.4,19.4,100,30.14,-9999.0,North,-9999.0,-,N/A,Snow,Heavy Snow,0,2014-02-09 04:35:00
10:55 PM,19.4,19.4,100,30.15,-9999.0,North,-9999.0,-,N/A,Snow,Heavy Snow,0,2014-02-09 04:55:00
11:15 PM,19.4,19.4,100,30.15,-9999.0,North,-9999.0,-,N/A,Snow,Heavy Snow,0,2014-02-09 05:15:00
11:35 PM,19.4,19.4,100,30.13,-9999.0,North,-9999.0,-,N/A,Snow,Heavy Snow,0,2014-02-09 05:35:00
11:55 PM,19.4,19.4,100,30.15,-9999.0,North,-9999.0,-,N/A,Snow,Heavy Snow,0,2014-02-09 05:55:00